This demonstration page uses our WeatherBlox Daily Observations layout. Learn more.

Hourly Observations for August 2, 2016

Temp ( °F °C ) Dew Point ( °F °C ) Humidity (%) Winds ( mph kmh ) Pressure ( in mb ) Visibility ( mi km ) Precip ( " mm )
12:15 am 00:15 Clear 76 24.7 74 23.5 93 93 ENE 7 11 29.8 1009 7 11.265408 0 0
12:35 am 00:35 Clear 76 24.7 74 23.5 93 93 NNE 6 9 29.83 1010 7 11.265408 0 0
12:55 am 00:55 Clear 76 24.5 74 23.4 94 94 NNE 5 7 29.83 1010 7 11.265408 0 0
1:15 am 01:15 Clear 76 24.6 74 23.5 94 94 NE 10 17 29.83 1010 7 11.265408 0 0
1:35 am 01:35 Partly Cloudy 77 24.9 75 23.7 93 93 NE 15 24 29.85 1011 7 11.265408 0 0
1:55 am 01:55 Mostly Cloudy 77 25 74 23.6 92 92 ENE 16 26 29.85 1011 7 11.265408 0 0
2:15 am 02:15 Cloudy 77 25 74 23.5 91 91 ENE 18 30 29.85 1011 10 16.09344 0 0
2:35 am 02:35 Cloudy 76 24.5 73 22.5 89 89 E 15 24 29.85 1011 10 16.09344 0 0
2:55 am 02:55 Partly Cloudy 74 23.1 67 19.5 80 80 E 15 24 29.85 1011 10 16.09344 0 0
3:15 am 03:15 Clear 72 22 66 19 83 83 ENE 10 17 29.88 1012 10 16.09344 0 0
3:35 am 03:35 Clear 70 21.3 66 18.8 86 86 ENE 7 11 29.88 1012 10 16.09344 0 0
3:55 am 03:55 Clear 70 21.1 65 18.5 85 85 ENE 5 7 29.88 1012 10 16.09344 0 0
4:15 am 04:15 Clear 69 20.8 66 18.7 88 88 ENE 5 7 29.88 1012 10 16.09344 0 0
4:35 am 04:35 Clear 69 20.7 65 18.5 87 87 ENE 5 7 29.88 1012 10 16.09344 0 0
4:55 am 04:55 Clear 69 20.5 65 18.5 88 88 NE 8 13 29.91 1013 10 16.09344 0 0
5:15 am 05:15 Clear 69 20.7 64 18 85 85 ENE 12 19 29.91 1013 10 16.09344 0 0
5:35 am 05:35 Clear 69 20.5 64 17.7 84 84 E 9 15 29.91 1013 10 16.09344 0 0
5:55 am 05:55 Clear 69 20.5 64 17.5 83 83 E 9 15 29.91 1013 10 16.09344 0 0
6:15 am 06:15 Clear 68 20.1 64 17.5 85 85 E 8 13 29.97 1015 10 16.09344 0 0
6:35 am 06:35 Clear 68 20 63 17.4 85 85 ENE 6 9 29.97 1015 10 16.09344 0 0
6:55 am 06:55 Sunny 67 19.7 64 17.5 87 87 NE 5 7 29.97 1015 10 16.09344 0 0
7:15 am 07:15 Sunny 67 19.5 64 17.6 89 89 NNE 6 9 29.97 1015 10 16.09344 0 0
7:35 am 07:35 Sunny 67 19.7 64 18 90 90 N 5 7 29.97 1015 10 16.09344 0 0
7:55 am 07:55 Sunny 68 20.2 65 18.2 88 88 N 3 6 29.94 1014 10 16.09344 0 0
8:15 am 08:15 Sunny 70 21.2 65 18.1 83 83 NE 3 6 29.94 1014 10 16.09344 0 0
8:35 am 08:35 Sunny 72 22 64 17.8 77 77 E 3 6 29.94 1014 10 16.09344 0 0
8:55 am 08:55 Sunny 73 23 64 17.6 72 72 E 7 11 29.97 1015 10 16.09344 0 0
9:15 am 09:15 Sunny 74 23.4 64 17.8 71 71 E 9 15 29.97 1015 10 16.09344 0 0
9:35 am 09:35 Sunny 75 23.8 65 18.3 71 71 ESE 8 13 29.97 1015 10 16.09344 0 0
9:55 am 09:55 Sunny 76 24.5 66 19.1 72 72 SE 12 19 29.97 1015 10 16.09344 0 0
10:15 am 10:15 Sunny 77 24.8 67 19.3 72 72 ESE 8 13 29.94 1014 10 16.09344 0 0
10:35 am 10:35 Sunny 77 25.2 67 19.6 71 71 ESE 8 13 29.94 1014 10 16.09344 0 0
10:55 am 10:55 Sunny 78 25.7 67 19.4 68 68 ESE 8 13 29.97 1015 10 16.09344 0 0
11:15 am 11:15 Sunny 79 26.1 67 19.3 66 66 SE 5 7 29.97 1015 10 16.09344 0 0
11:35 am 11:35 Sunny 79 26.3 67 19.4 66 66 Calm 29.97 1015 10 16.09344 0 0
11:55 am 11:55 Sunny 80 26.8 67 19.5 64 64 Calm 29.97 1015 10 16.09344 0 0
12:15 pm 12:15 Sunny 81 27.1 68 19.9 65 65 Calm 29.97 1015 10 16.09344 0 0
12:35 pm 12:35 Sunny 81 27.4 69 20.5 66 66 E 3 6 29.97 1015 10 16.09344 0 0
12:55 pm 12:55 Sunny 82 27.5 69 20.5 66 66 NE 5 7 29.97 1015 10 16.09344 0 0
1:15 pm 13:15 Sunny 82 27.9 70 20.9 66 66 NE 6 9 29.91 1013 10 16.09344 0 0
1:35 pm 13:35 Sunny 83 28.4 70 20.9 64 64 N 6 9 29.91 1013 10 16.09344 0 0
1:55 pm 13:55 Sunny 84 29.1 70 21.3 63 63 NE 7 11 29.91 1013 10 16.09344 0 0
2:15 pm 14:15 Sunny 85 29.6 69 20.8 59 59 E 7 11 29.91 1013 10 16.09344 0 0
2:35 pm 14:35 Sunny 87 30.6 70 21.1 57 57 ENE 9 15 29.91 1013 10 16.09344 0 0
2:55 pm 14:55 Sunny 87 30.6 68 20.1 53 53 NE 8 13 29.91 1013 10 16.09344 0 0
3:15 pm 15:15 Sunny 88 31 69 20.5 54 54 ENE 10 17 29.91 1013 10 16.09344 0 0
3:35 pm 15:35 Sunny 87 30.7 69 20.7 55 55 NE 12 19 29.88 1012 10 16.09344 0 0
3:55 pm 15:55 Sunny 88 31.1 69 20.6 54 54 ENE 12 19 29.85 1011 10 16.09344 0 0
4:15 pm 16:15 Sunny 88 31.2 69 20.8 54 54 E 12 19 29.85 1011 10 16.09344 0 0
4:35 pm 16:35 Sunny 88 31.1 69 20.6 54 54 E 12 19 29.85 1011 10 16.09344 0 0
4:55 pm 16:55 Partly Cloudy 88 31.3 70 21 54 54 E 13 20 29.85 1011 10 16.09344 0 0
5:15 pm 17:15 Partly Cloudy 88 31.1 69 20.7 54 54 E 9 15 29.85 1011 10 16.09344 0 0
5:35 pm 17:35 Sunny 87 30.7 69 20.7 55 55 E 12 19 29.88 1012 10 16.09344 0 0
5:55 pm 17:55 Partly Cloudy 85 29.6 68 20.1 57 57 E 10 17 29.88 1012 10 16.09344 0 0
6:15 pm 18:15 Partly Cloudy 86 30.1 69 20.3 56 56 ESE 10 17 29.88 1012 10 16.09344 0 0
6:35 pm 18:35 Sunny 86 30 70 20.9 58 58 E 12 19 29.88 1012 10 16.09344 0 0
6:55 pm 18:55 Partly Cloudy 85 29.4 71 21.7 63 63 E 14 22 29.88 1012 10 16.09344 0 0
7:15 pm 19:15 Partly Cloudy 83 28.6 70 20.9 63 63 E 10 17 29.88 1012 10 16.09344 0 0
7:35 pm 19:35 Sunny 83 28.5 71 21.5 66 66 E 7 11 29.88 1012 10 16.09344 0 0
7:55 pm 19:55 Sunny 83 28.1 71 21.4 67 67 E 7 11 29.88 1012 10 16.09344 0 0
8:15 pm 20:15 Sunny 82 27.5 71 21.7 71 71 E 6 9 29.88 1012 10 16.09344 0 0
8:35 pm 20:35 Sunny 80 26.5 71 21.5 74 74 E 6 9 29.91 1013 10 16.09344 0 0
8:55 pm 20:55 Partly Cloudy 78 25.6 71 21.7 79 79 E 6 9 29.94 1014 10 16.09344 0 0
9:15 pm 21:15 Partly Cloudy 77 25.1 71 21.7 81 81 E 7 11 29.94 1014 10 16.09344 0 0
9:35 pm 21:35 Clear 77 25 71 21.6 81 81 E 7 11 29.94 1014 10 16.09344 0 0
9:55 pm 21:55 Clear 77 25.1 71 21.5 81 81 E 7 11 29.94 1014 10 16.09344 0 0
10:15 pm 22:15 Clear 77 25.1 71 21.6 81 81 E 7 11 29.94 1014 10 16.09344 0 0
10:35 pm 22:35 Clear 77 25 71 21.7 82 82 ESE 7 11 29.94 1014 10 16.09344 0 0
10:55 pm 22:55 Partly Cloudy 76 24.5 71 21.6 84 84 ESE 6 9 29.94 1014 10 16.09344 0 0
11:15 pm 23:15 Clear 76 24.5 71 21.5 83 83 SE 7 11 29.94 1014 10 16.09344 0 0
11:35 pm 23:35 Clear 76 24.3 70 21.2 83 83 SE 7 11 29.94 1014 10 16.09344 0 0
11:55 pm 23:55 Clear 75 24 69 20.7 82 82 SSE 8 13 29.94 1014 10 16.09344 0 0

Powered by AerisWeather